CZ-6A DEB

Satellite information

Favourite Embed

Satellite Type and Status

DEBRISIN ORBIT

Key statistics

Satellite CZ-6A DEB at a glance.

Uptime

908

Days in orbit

Revolutions

≈ 14.1

Per day

Orbit

SSO

Sun Synchronous Orbit

Inclination

98.8

Latest

Satellite identification and parameters

Extended collection of information and parameters for CZ-6A DEB.

Object identification

Identified? True

Debris? True

Object name: CZ-6A DEB

International designator: 2022-151QH

Object number (NORAD): 54896

Object ID (CCSDS): 54896

Country: PEOPLES REPUBLIC OF CHINA (PRC)

Current information (Y/N): Y

RCS size: SMALL

Orbital parameters

Period: 102.456 minutes

Inclination: 98.8279 deg

SMA: 7253.016 km

Apoapsis: 922.277 km

Periapsis: 827.484 km

RAAN: 120.5133 deg

Eccentricy: 0.0065347

Argument of periapsis: 66.7435 deg

Mean anomaly: 294.0596 deg

Mean motion: 14.05480593 rev/day

Mean motion (dot): 0.00000136 rev/day2

B* drag term: 0.00010809 1/REarth

Two-line elements (TLE)

Creation date: May 6, 2025, 3:54 a.m.

Reference frame: TEME

Reference center: EARTH

Epoch: May 5, 2025, 5:56 p.m. UTC

TLE line 0: 0 CZ-6A DEB

TLE line 1: 1 54896U 22151QH 25125.74724425 .00000136 00000-0 10809-3 0 9994

TLE line 2: 2 54896 98.8279 120.5133 0065347 66.7435 294.0596 14.05480593124403

Live tracking on map

Real-time ground track for satellite CZ-6A DEB.

In-orbit conjunctions

A list of the most updated potential collisions computed for object CZ-6A DEB.

Target Orbit TCA Probability of collision Miss distance Type
THORAD AGENA D DEB SSO 2024-09-26 21:35:27 0.0007587994 750.0 (m) DEBRIS
CZ-4 R/B SSO 2024-07-28 01:03:02 0.001839753 102.0 (m) ROCKET BODY
DELTA 4 R/B MEO 2024-06-04 15:45:21 0.0002238278 96.0 (m) ROCKET BODY
CZ-6A DEB SSO 2024-05-28 04:49:19 0.0001483851 320.0 (m) DEBRIS

Associated space launch

Chinese satellite reported for atmospheric/ocean/environmental/spatial parameter research purposes, details TBD.

CZ-6A DEB was lifted into orbit during the mission ‘Long March 6A | Yunhai 3’, on board a Long March 6A space rocket.

The launch took place on Nov. 11, 2022, 10:52 p.m. from Launch Complex 9A.

For more information about the launch, click the button.

Launch to space Long March 6A | Yunhai 3
Long March 6A | Yunhai 3

Agency: N/A

Status: Launch Successful

Launch date: Nov. 11, 2022, 10:52 p.m. UTC

Rocket: Long March 6A

Launch pad: Launch Complex 9A

Location: Taiyuan Satellite Launch Center, People's Republic of China

...

Latest news about this satellite

There are no fresh news available about this satellite. Check back as we update our databases every day.


Newsletter sign-up

Weekly statistics, charts and insights to help you stay on top of the space industry.